Find Starlink 30497

NORAD ID: 58011 Int'l Des: 2023-153 Owner: SPXS Country: US Constellation: starlink operational
LEOCIRCULAR

Live Position

Loading 3D Globe...

About Starlink 30497

Description loading...

Upcoming Passes

Passes for default location (London). Set your location on the main map for personalized predictions.

Altitude History

Loading altitude history...

Two-Line Element Set

1 58011U 23153W 26123.04884388 .00000118 00000-0 13808-4 0 9990
2 58011 43.0065 119.7244 0001722 270.5799 89.4855 15.27580936143210
Epoch: May 3, 2026 • Age: 17 hours

Current Status

Altitude 495.2 km
Velocity 7.62 km/s
Sub-Earth Point -43.16°S, 107.73°W
Launch Date Oct 5, 2023
Age 2.5 years
Type internet

Technical Details

Classification Payload
Mass 730.00 kg
Dry Mass 700.00 kg
Total Mass 730.00 kg
Length 0.30 m
Diameter 4.10 m
Span 29.00 m
Shape Box + pan
Manufacturer SPXS
Bus Type Starlink V2M
Phase Status In Orbit
Owner/State SPXS/US

Most Searched